Location: Marcé
(47.5801°N, 0.3280°W)
Time: 18:16:56
(UTC+01:00)

Tiros 1 - Pass Details

Date: 06 December 2021
Orbit: 629 x 664 km, 48.4° (Epoch: 26 January)

Event Time Altitude Azimuth Distance (km) Brightness Sun altitude
Rises 22:19:14 0° 280° (W) 2,937 - -50.5°
Reaches altitude 10° 22:21:33 10° 281° (W) 2,033 - -50.9°
Maximum altitude 22:26:15 90° 184° (S) 651 - -51.6°
Drops below altitude 10° 22:30:59 10° 103° (ESE) 2,053 - -52.3°
Sets 22:33:20 0° 103° (ESE) 2,968 - -52.6°
